Weather Roundup
Issued by NWS Chicago, IL

Home | Current Version | Previous Version | Graphics & Text | Print | Product List | Glossary On
Versions: 1 2 3 4 5 6 7 8 9 10 11 12 13 14 15 16 17 18 19 20 21 22 23 24 25 26 27 28 29 30 31 32 33 34 35 36 37 38 39 40 41 42 43 44 45 46 47 48 49 50
000
NZUS59 KLOT 240408
HRRLOT

CHICAGO AREA WEATHER ROUNDUP
NATIONAL WEATHER SERVICE CHICAGO/ROMEOVILLE IL
1100 PM CDT THU MAR 23 2017

NOTE: "FAIR" INDICATES FEW OR NO CLOUDS BELOW 12,000 FEET WITH NO
SIGNIFICANT WEATHER AND/OR OBSTRUCTIONS TO VISIBILITY.

* THESE STATIONS ARE NOT UNDER NWS QUALITY CONTROL. THEY ALSO MAY NOT
  REPORT WEATHER SUCH AS PRECIPITATION OR FOG.

ILZ005-006-012>014-019>023-240500-
NORTHEAST ILLINOIS

CITY           SKY/WX    TMP DP  RH WIND       PRES   REMARKS
OHARE          MOCLDY    46  32  58 S7        30.02F
MIDWAY         CLOUDY    51  32  48 S9        30.02F
AURORA         PTCLDY    47  33  58 SE10      30.01F
LANSING*       PTCLDY    47  34  59 S12G17    30.03S
JOLIET*        PTCLDY    49  34  55 S9        30.01F
WAUKEGAN       PTCLDY    40  35  83 SE6       30.02F
DUPAGE AIRPORT MOCLDY    45  32  60 S6        30.01S
WHEELING       CLOUDY    46  33  60 S7        30.03F
KANKAKEE*      CLOUDY    49  32  52 S15G26    30.01F
MORRIS*        CLOUDY    46  33  60 S14G21    30.00R
LEWIS AIRPORT* PTCLDY    45  36  71 S8        30.01F
NORTHERLY ISL    N/A     50  29  44 S10         N/A
$$

WIZ051-052-058>065-066-070>072-240500-
SOUTHEAST WISCONSIN

CITY           SKY/WX    TMP DP  RH WIND       PRES   REMARKS
MILWAUKEE      CLOUDY    45  34  65 S16       29.97F
KENOSHA*       CLOUDY    40  34  79 SE9       30.01F
RACINE*        CLOUDY    43  33  68 S15G24    30.00F
WAUKESHA       CLOUDY    41  32  70 S13G18    29.98R
WEST BEND      PTCLDY    37  36  93 S8        29.95F
$$

INZ001>003-010>013-019-020-240500-
NORTHWEST INDIANA

CITY           SKY/WX    TMP DP  RH WIND       PRES   REMARKS
GARY*          PTCLDY    50  29  43 S7        30.03S
MICHIGAN CITY* NOT AVBL
RENSSELAER*    NOT AVBL
VALPARAISO     CLOUDY    48  35  60 SE7       30.05S
$$

LMZ740>746-240500-
SOUTHERN LAKE MICHIGAN

STATION/POSITION TIME  SKY/WX   TEMP WIND        PRES    VSBY
                                AIR  DIR/SP/G
                 (UTC)          (F)  (DEG/KT/KT) (MB)    (MI)
HARRISON CRIB    0340            46  170/  9/ 10   N/A
BURNHAM HARBOR   0400            49  160/  8/ 12   N/A
CALUMET HARBOR   0348            51  170/  9/ 12 1016.2F
BURNS HARBOR     0340            50  180/ 15/ 23 1017.3R
MICHIGAN CITY    0340            50  150/ 17/ 23   N/A
$$

ABBREVIATIONS USED IN REMARKS
   TC - TEMPERATURE IN CELSIUS
  WCI - WIND CHILL INDEX
   HX - HEAT INDEX
  VSB - VISIBILITY
$$



USA.gov is the U.S. government's official web portal to all federal, state and local government web resources and services.